GFSMW_sfc_30mbdewp_093.txt.gz
Dewpoint
39 46 50 52 56 56 56 55 56 58 57 56 55 55 54 55 55 57 58 59 60 60 58 57 56 54 53 50 48 49 46 46 46 45 46 48 49 48 50 51 51 52 52
40 48 50 55 56 55 55 55 56 58 56 56 55 54 54 54 54 55 55 56 57 57 56 55 53 53 51 49 48 48 46 45 47 44 44 42 44 47 49 49 51 51 51
40 49 49 53 55 55 55 55 56 57 56 56 54 53 53 53 52 52 53 54 55 56 55 53 51 50 50 48 48 48 45 43 46 45 43 42 40 42 45 47 48 49 50
44 49 50 53 55 55 55 55 55 57 56 55 53 52 51 50 51 51 51 53 54 54 53 52 51 49 48 46 48 50 46 44 42 46 50 50 51 44 43 45 45 47 48
46 50 51 53 55 55 55 55 55 57 55 54 53 51 50 50 51 51 51 52 53 53 53 52 51 50 49 48 48 50 47 47 44 44 47 48 49 51 49 45 44 46 47
46 50 52 53 54 55 54 55 55 56 55 54 52 50 49 49 49 49 50 50 50 50 51 51 49 48 49 51 51 50 51 51 48 49 49 47 47 48 49 48 48 46 47
44 50 52 53 54 54 54 55 55 56 55 53 52 50 51 50 50 48 49 48 48 49 50 49 50 52 51 54 52 52 54 54 53 52 52 52 50 51 50 49 48 48 50
44 50 52 53 53 54 54 54 54 55 56 54 52 50 51 51 50 48 49 48 47 47 50 52 53 53 53 53 54 54 54 55 54 53 54 53 53 53 52 51 50 49 50
43 49 51 53 53 53 53 54 53 54 56 55 53 51 51 51 50 49 48 49 49 49 53 51 51 52 53 54 54 54 55 55 54 54 54 54 54 54 54 53 52 50 48
41 49 50 51 54 53 53 53 53 53 54 56 55 53 51 51 51 49 48 48 48 49 52 53 52 51 52 54 54 55 55 55 56 56 55 55 56 55 55 55 54 54 52
32 43 50 51 54 54 53 53 53 53 54 55 55 55 53 52 51 51 49 50 51 51 51 52 52 52 53 54 54 54 55 55 55 56 56 56 56 55 55 55 55 55 54
32 38 49 51 53 53 53 53 52 53 54 54 54 55 55 54 52 51 51 50 51 51 50 50 51 52 51 52 54 54 54 55 55 55 56 55 56 56 56 55 55 55 55
34 40 50 51 53 53 53 53 53 52 53 53 54 55 55 55 54 53 53 51 51 50 50 49 50 50 51 53 53 53 54 55 55 55 55 55 55 54 55 55 55 55 55
32 41 50 50 52 53 53 53 53 53 53 54 54 54 54 55 55 53 53 54 53 51 50 49 49 48 49 50 54 53 53 54 55 55 55 55 54 54 54 54 54 54 54
30 35 44 49 52 52 53 53 54 53 53 54 54 53 53 53 55 55 54 53 54 53 53 51 49 48 48 48 51 53 54 54 54 54 53 49 46 47 50 53 53 53 52
28 33 36 45 51 52 52 53 53 53 53 54 54 54 54 54 55 55 56 55 55 54 53 53 51 50 50 48 47 50 53 54 53 50 44 40 39 38 38 38 39 43 44
40 42 42 43 44 47 52 52 53 53 53 52 55 54 54 54 54 55 55 56 56 56 55 54 53 53 51 50 49 50 53 53 50 46 40 37 36 36 35 34 34 33 34
44 45 46 46 46 46 45 45 53 53 52 52 52 54 55 55 55 55 54 54 55 55 56 56 55 53 47 48 48 46 43 41 38 37 36 34 34 34 33 32 31 31 31
47 47 48 48 48 48 50 48 47 53 53 52 52 52 54 55 55 55 55 55 55 55 54 50 48 46 40 40 41 42 38 34 33 33 33 33 32 33 33 29 27 25 26
46 46 46 45 45 45 48 49 48 50 53 53 53 53 54 53 54 54 54 50 50 43 40 37 37 36 36 35 36 35 33 30 29 29 30 30 30 30 29 27 25 23 22
43 43 42 41 41 41 46 44 44 44 45 44 53 54 54 54 52 49 45 41 38 35 33 32 32 33 33 33 33 33 31 29 27 27 27 28 28 27 25 26 27 26 27
39 39 39 38 39 38 40 39 38 40 42 41 41 42 44 43 43 42 39 38 36 33 31 29 28 29 31 32 32 31 30 28 26 25 26 26 24 25 26 26 26 25 25
35 36 36 36 36 37 36 35 35 36 37 37 36 36 37 39 39 37 34 33 32 31 29 27 27 27 28 29 30 29 28 26 25 26 27 27 27 27 27 26 25 24 23
32 34 34 34 34 35 35 34 33 32 31 30 30 31 31 30 31 32 33 32 30 29 27 26 25 25 26 27 28 28 27 28 27 28 27 26 26 26 26 25 23 22 20
31 31 30 30 30 32 33 33 32 30 28 28 27 27 27 27 27 27 27 27 28 29 27 26 27 25 25 27 29 28 27 27 26 26 26 25 24 22 21 21 20 17 15
28 28 28 28 28 29 30 32 32 29 28 27 26 25 24 25 25 24 25 28 27 28 27 27 27 28 28 29 29 29 29 29 27 24 21 20 20 19 17 16 15 14 14

GFSMW_sfc_30mbdewp_096.txt.gz
Dewpoint
31 49 54 56 56 56 56 56 56 57 57 57 56 55 56 56 58 59 61 61 61 60 57 56 53 45 51 51 50 48 48 48 48 48 49 50 52 51 52 52 52 52 52
42 50 53 56 56 55 55 55 56 56 56 56 56 55 55 55 56 57 58 61 61 60 57 55 54 48 52 50 49 48 48 47 47 46 46 46 47 49 51 52 51 51 51
42 49 53 55 55 55 55 55 56 56 56 56 55 54 54 53 53 54 55 57 60 59 58 55 54 52 51 49 48 47 46 46 47 46 45 42 43 45 47 50 51 51 51
41 49 53 54 54 54 55 55 56 56 55 55 54 53 52 51 52 52 53 55 58 59 58 56 54 53 51 49 48 47 46 45 44 46 49 48 46 43 42 46 49 50 51
38 49 52 54 54 54 54 55 56 55 55 54 53 52 52 51 52 51 52 53 55 56 56 55 54 51 50 49 49 48 46 46 46 45 48 49 50 51 47 42 44 46 48
39 48 52 54 54 54 54 55 55 54 55 54 53 52 51 51 51 51 51 52 54 54 54 53 53 51 50 49 49 50 48 47 45 46 47 47 48 48 49 48 46 43 45
35 48 52 53 54 54 54 54 55 53 54 54 52 51 50 51 51 51 51 51 52 53 53 53 53 52 51 51 51 50 51 49 48 47 46 49 48 49 49 49 47 47 48
44 49 52 53 54 54 54 54 54 53 54 53 52 50 50 50 50 50 50 50 51 52 52 52 52 52 51 51 53 52 51 52 51 51 51 50 51 51 50 48 47 47 48
43 50 52 53 53 53 54 54 55 53 53 53 52 50 51 50 50 50 50 49 49 50 50 50 51 52 51 51 52 52 52 54 54 53 53 53 53 54 53 52 51 49 47
48 50 52 53 53 54 54 54 54 54 53 53 52 50 51 51 50 49 49 49 48 49 51 51 52 53 52 52 52 52 54 53 54 54 54 53 54 54 54 53 53 52 50
47 51 52 52 53 54 54 53 53 54 53 54 53 51 50 51 51 49 49 49 49 49 52 51 52 52 52 53 52 52 53 54 54 54 54 53 54 54 54 54 54 54 53
35 49 51 53 53 53 53 53 53 53 55 55 54 52 51 51 51 50 49 50 49 50 50 51 50 51 51 52 53 53 53 53 53 54 55 54 55 54 54 54 54 54 54
35 38 50 52 53 53 53 52 53 53 53 55 55 54 53 51 51 51 50 49 51 50 51 50 50 49 50 51 52 52 53 54 54 54 54 54 54 54 54 54 54 54 54
33 45 50 52 53 53 53 52 53 53 53 53 54 54 55 54 52 51 51 50 50 50 50 50 50 49 50 50 50 52 53 54 54 54 54 54 54 54 53 54 54 54 54
34 42 50 51 53 53 53 53 53 53 54 54 52 52 54 55 55 53 52 52 51 51 50 49 49 49 49 49 50 51 50 52 53 53 54 54 53 49 50 53 53 53 53
44 44 46 51 53 53 53 54 53 53 53 52 51 52 52 54 55 54 53 53 53 52 51 50 49 48 48 47 47 49 53 53 53 53 48 43 40 39 39 40 39 42 49
47 47 47 47 49 51 54 54 54 54 53 53 53 53 53 52 53 55 54 53 53 53 53 52 51 50 49 47 46 46 49 52 52 51 45 40 37 36 35 35 34 34 34
46 45 45 45 45 47 50 50 54 54 54 54 54 54 54 53 52 53 53 55 55 54 53 53 53 53 52 50 47 45 46 45 44 44 42 39 36 35 34 33 31 31 31
44 43 43 43 43 45 46 46 47 52 54 53 53 55 54 54 54 53 54 55 55 55 55 55 54 53 48 46 47 45 41 37 35 34 35 34 33 34 33 29 28 27 27
42 42 41 40 40 41 43 43 43 43 44 45 47 52 55 55 54 54 54 55 55 54 49 46 45 44 42 39 42 42 36 33 30 30 31 32 31 31 30 27 26 25 26
38 39 39 38 38 38 40 39 39 39 41 42 42 46 48 53 55 55 53 49 46 41 39 36 34 34 34 35 36 36 35 32 29 29 28 29 30 30 29 28 27 26 28
36 36 36 35 35 35 37 36 35 36 37 37 36 36 39 42 43 44 41 40 38 35 32 30 30 31 31 32 32 31 31 30 26 25 27 29 29 28 27 27 28 27 27
32 33 34 33 33 34 33 33 32 33 32 31 31 32 32 33 35 37 36 34 34 32 30 28 27 27 28 29 29 29 28 27 26 27 29 28 27 26 26 26 25 25 23
30 30 31 30 31 32 32 31 31 30 29 29 28 28 28 28 30 30 31 31 31 30 28 27 26 26 26 27 28 28 28 28 27 27 26 26 25 25 24 22 21 21 20
28 28 29 29 29 31 31 32 30 29 27 26 26 27 26 26 26 27 28 27 28 29 27 26 25 24 25 26 27 27 26 26 26 25 25 23 22 20 19 19 18 18 17
26 26 27 27 28 29 29 30 29 28 26 25 24 24 25 25 25 25 26 29 29 29 30 29 28 29 29 29 29 29 28 27 25 22 20 19 18 17 16 15 14 13 11

GFSMW_sfc_30mbdewp_102.txt.gz
Dewpoint
28 31 40 34 51 56 57 57 57 57 57 57 57 58 58 58 59 60 61 61 61 59 58 56 55 55 54 53 52 52 52 52 52 51 51 51 52 52 53 53 53 53 53
28 31 46 51 53 56 56 57 57 57 57 57 58 57 57 56 58 60 61 61 61 59 58 56 55 55 54 52 51 51 51 51 51 49 49 48 49 51 52 52 52 52 53
27 28 41 52 54 55 56 56 56 57 57 57 56 55 55 55 56 57 58 60 61 59 58 56 55 53 54 52 50 50 50 50 51 50 48 47 46 48 50 51 52 52 52
36 31 35 50 54 55 56 55 56 56 56 55 54 53 53 53 54 55 56 58 60 60 58 56 54 53 51 50 49 49 49 50 49 50 48 48 49 47 45 48 51 51 51
38 34 33 47 54 55 54 55 56 56 55 55 54 53 53 52 53 54 55 56 57 59 58 57 55 51 51 50 48 49 49 50 49 48 49 48 49 47 45 45 47 50 51
39 39 38 50 54 55 55 55 55 54 54 54 53 53 52 52 52 52 53 54 55 57 59 58 55 52 52 51 47 50 50 50 49 48 48 46 46 47 46 44 45 47 48
40 40 40 50 54 54 54 54 54 53 54 54 53 52 52 52 52 52 52 53 54 55 57 57 55 52 54 52 50 50 50 49 49 48 48 48 46 50 49 48 48 45 46
40 41 41 45 53 54 54 54 54 53 54 53 53 52 52 52 52 52 53 53 53 54 56 56 54 53 54 52 52 51 51 50 49 48 47 47 49 50 48 46 48 48 47
40 41 41 46 53 53 53 53 53 53 53 52 52 52 52 52 52 52 53 53 54 54 55 55 54 54 54 53 52 50 51 50 50 47 46 47 49 51 51 50 50 49 47
41 42 42 50 53 53 53 53 53 53 53 52 51 51 52 51 51 51 52 52 54 54 54 54 54 54 54 53 53 53 52 51 51 51 48 49 50 51 51 50 50 49 49
41 42 44 51 53 53 52 53 52 52 52 52 51 51 51 51 51 51 51 51 53 53 53 54 53 53 53 53 53 52 52 52 52 52 50 50 52 51 52 53 53 52 52
44 43 47 50 53 53 52 52 52 52 53 52 51 50 51 51 50 51 51 50 51 53 53 53 53 54 53 53 52 52 52 51 51 51 50 50 52 50 52 52 52 52 53
45 46 48 51 53 52 52 51 52 52 52 52 51 50 50 50 50 50 50 50 50 51 52 52 52 52 52 53 52 52 52 51 51 52 52 51 52 51 53 53 53 53 52
46 45 46 52 53 53 51 52 52 53 53 51 51 50 51 50 50 50 50 50 49 50 50 51 51 52 52 52 52 52 51 51 50 50 52 52 52 52 52 52 52 52 52
45 43 45 46 52 52 52 53 54 54 53 52 52 51 51 51 51 50 49 50 49 49 50 51 51 51 51 52 52 51 51 50 50 49 51 52 52 52 53 52 53 53 52
43 43 43 44 45 47 53 53 53 54 54 52 53 52 52 51 51 51 50 49 50 50 49 49 50 50 50 50 50 51 51 51 51 50 51 51 51 52 48 46 43 44 51
42 41 41 41 42 44 44 51 54 54 54 54 54 53 53 52 51 51 51 51 50 50 50 50 49 50 50 48 48 49 50 50 51 51 51 50 47 46 40 36 34 33 32
39 39 39 38 38 40 42 46 52 55 54 54 54 54 54 54 54 53 52 51 51 51 50 50 50 50 50 48 46 46 48 48 48 49 49 48 45 42 39 35 31 30 29
37 37 36 36 35 37 39 41 42 45 46 46 48 49 53 53 53 54 54 53 52 52 52 51 50 50 50 48 47 46 46 46 46 45 46 48 44 38 36 32 28 27 28
35 35 35 34 33 35 36 36 36 36 38 39 40 41 43 47 50 53 53 54 54 53 52 52 52 51 50 49 48 46 47 45 40 36 36 38 38 35 32 30 28 25 24
33 33 33 33 33 32 33 32 32 32 33 34 34 34 35 38 40 43 51 53 54 52 44 37 33 34 34 35 37 42 47 42 34 32 30 31 32 31 30 29 27 24 24
31 32 32 32 32 31 31 30 29 30 30 30 30 31 32 33 34 36 36 37 40 37 33 32 30 30 31 33 34 34 32 32 30 29 29 30 30 29 28 27 26 24 23
30 31 31 30 30 30 29 28 28 28 28 28 28 29 29 30 31 32 32 33 32 31 29 28 27 27 29 30 31 31 31 30 29 29 28 27 26 25 24 24 23 22 20
28 28 29 28 28 28 27 27 27 27 27 27 27 28 28 28 29 29 30 30 29 28 28 27 26 26 27 27 28 27 26 24 22 22 22 22 21 20 20 19 19 19 18
26 27 27 27 27 27 26 26 25 26 26 26 26 27 27 26 26 27 28 28 29 29 27 27 27 25 25 26 27 25 23 23 22 22 21 19 18 17 16 16 16 16 15
24 24 25 26 26 26 25 24 24 24 24 24 24 25 25 24 24 23 24 28 28 29 29 28 27 27 27 26 26 25 24 23 22 19 17 16 15 14 14 13 13 13 12

GFSMW_sfc_30mbdewp_108.txt.gz
Dewpoint
24 21 31 36 39 40 41 40 47 55 58 62 61 60 60 61 61 62 61 61 61 61 61 61 61 59 57 56 56 56 55 55 56 55 54 53 53 52 52 50 49 51 52
13 27 36 41 42 45 45 47 50 55 58 60 60 60 61 61 61 62 62 61 61 61 61 61 60 59 57 57 57 56 55 54 55 53 52 51 52 53 52 49 49 52 52
25 33 39 41 43 44 47 49 51 54 57 58 60 60 61 60 60 60 60 61 60 61 61 60 60 59 58 55 55 55 54 52 54 54 51 49 48 50 52 50 48 53 51
37 38 40 41 43 45 47 50 51 53 56 58 59 59 58 57 58 58 59 60 60 60 60 60 59 58 58 55 55 55 54 54 53 55 55 50 49 47 49 51 48 49 51
39 40 41 42 42 44 51 52 53 54 56 57 59 58 57 56 57 57 57 59 60 60 61 59 57 56 56 56 56 56 55 54 53 53 52 52 50 49 46 46 45 47 48
39 39 40 41 41 44 48 53 54 54 56 58 58 58 57 56 55 55 56 57 58 60 60 58 57 56 56 55 55 56 55 55 54 54 53 51 50 49 47 44 46 44 46
37 38 38 39 42 44 46 51 54 53 55 57 58 58 57 56 55 55 55 54 56 58 59 57 57 56 55 55 55 55 55 55 54 54 54 53 50 50 47 45 45 44 45
37 36 37 39 42 43 46 49 53 53 54 56 57 57 57 56 55 54 53 54 55 56 59 58 57 56 55 55 55 55 55 55 54 54 53 52 51 49 45 42 47 46 46
36 38 40 42 44 45 48 49 53 53 54 55 56 56 56 55 54 54 53 54 54 56 57 57 56 56 55 54 54 54 55 55 54 55 54 52 51 50 47 45 49 44 42
40 41 41 43 44 44 49 51 53 53 54 55 55 55 57 55 54 54 54 54 55 55 55 57 56 55 54 54 53 53 53 54 54 54 53 53 52 50 50 50 51 47 45
41 41 42 43 42 45 47 51 53 53 54 54 54 56 55 55 54 54 54 54 54 54 54 56 57 55 54 54 52 52 53 53 53 54 53 52 53 50 49 50 46 48 46
41 40 41 42 41 42 43 50 52 53 53 54 55 55 54 54 53 53 53 54 54 54 54 55 55 54 54 54 52 51 52 51 52 52 52 52 52 52 52 50 50 47 48
43 41 41 41 41 41 41 52 54 54 54 54 54 54 54 53 53 53 53 54 54 54 54 54 55 54 54 53 53 52 52 51 51 51 51 51 52 51 51 51 50 51 51
41 41 42 41 40 39 39 43 54 54 54 53 53 53 53 53 53 53 53 53 54 53 53 52 53 54 54 53 52 51 50 51 51 51 51 51 52 51 51 51 52 51 51
39 39 39 39 39 38 38 40 54 54 53 53 53 52 53 52 53 52 53 53 52 53 54 53 53 54 54 53 53 51 50 49 50 51 50 50 51 50 50 50 51 52 51
37 37 36 36 37 36 37 38 52 54 53 53 52 52 52 51 52 52 52 53 52 52 54 54 54 54 53 53 52 52 51 50 49 49 50 51 51 51 49 49 49 52 52
35 35 35 35 35 36 37 37 43 54 53 53 53 52 51 51 51 52 51 52 52 52 52 52 53 53 53 51 52 51 52 52 51 50 51 51 51 52 50 46 42 39 39
33 34 34 34 34 35 36 37 44 52 51 51 52 53 52 52 52 51 51 51 51 51 51 52 52 52 53 50 50 50 52 52 52 52 51 51 51 50 47 43 39 35 33
32 33 33 33 33 33 34 34 34 37 39 39 40 41 45 49 52 52 52 52 52 52 52 51 51 51 52 49 49 49 51 53 52 52 52 52 51 50 44 40 34 29 28
31 32 32 32 32 32 33 33 32 32 33 35 36 37 39 40 41 43 46 51 53 52 51 43 40 42 43 39 45 46 50 50 49 42 40 38 46 45 40 39 32 27 25
31 32 31 30 30 31 32 31 31 31 32 33 33 33 34 35 36 38 38 41 44 38 34 33 33 33 34 36 38 43 47 45 37 33 32 32 34 34 34 32 28 23 22
28 30 30 29 30 29 29 29 29 31 31 31 31 31 32 32 33 34 34 34 34 32 31 30 30 29 30 32 34 36 38 35 33 30 30 30 30 30 28 26 25 24 22
27 29 28 28 28 27 28 28 28 29 28 28 28 29 30 30 30 31 32 32 31 30 29 28 27 26 26 27 29 30 30 30 28 28 27 27 26 25 24 23 22 22 21
26 27 27 26 25 27 26 27 28 28 27 27 27 27 27 28 28 29 29 29 29 28 27 26 25 24 24 24 25 24 24 23 22 22 22 22 22 22 23 22 22 23 22
26 26 25 25 24 25 26 25 26 28 27 26 26 26 26 26 26 27 27 27 28 28 26 26 25 24 23 25 25 25 25 24 24 25 25 24 23 23 22 21 21 21 20
23 23 24 23 23 23 23 24 25 27 28 26 25 25 24 24 24 24 24 27 27 26 26 26 26 26 26 27 26 25 25 25 27 26 25 23 23 21 20 18 16 14 13

GFSMW_sfc_30mbdewp_114.txt.gz
Dewpoint
28 29 30 31 34 36 37 39 44 57 62 63 64 64 63 62 62 62 63 63 63 65 64 63 63 62 62 61 61 60 59 59 60 58 58 58 59 58 55 55 56 55 56
27 28 30 34 35 36 41 42 42 43 54 60 61 62 63 63 62 62 62 63 64 64 62 63 62 62 61 60 60 58 57 57 59 56 55 53 55 56 56 56 55 54 55
28 28 29 35 39 41 43 43 44 45 47 46 58 61 63 62 61 61 60 63 63 62 62 62 63 62 60 59 59 58 57 55 57 58 54 51 50 53 54 53 54 54 54
23 22 27 36 39 41 44 45 48 48 48 51 52 62 61 60 60 61 61 62 62 62 62 62 62 61 60 59 58 58 57 56 55 56 56 55 54 50 49 51 52 53 52
20 21 33 36 38 41 44 46 49 51 51 51 54 61 60 60 60 60 60 61 61 61 60 62 62 60 59 58 58 57 56 56 55 55 54 54 54 53 50 47 49 52 52
32 33 35 36 35 39 43 45 46 47 51 52 54 60 60 59 58 59 59 60 61 61 61 61 61 60 59 58 58 57 56 55 55 55 54 53 52 52 51 48 50 51 51
33 32 33 34 38 41 44 45 45 46 48 53 53 58 60 60 59 59 59 59 60 60 61 61 60 60 59 58 58 57 56 55 54 55 55 55 54 54 52 49 49 49 50
35 34 37 41 42 43 44 45 45 45 47 49 54 56 60 60 59 59 59 59 59 59 61 61 60 60 59 58 57 57 56 56 55 54 55 56 56 55 53 51 49 47 47
34 36 39 42 42 42 43 45 45 46 48 49 51 56 58 60 58 59 60 58 58 58 60 60 58 59 58 58 57 56 56 56 55 55 55 55 56 56 55 53 52 47 45
36 37 39 40 41 42 43 44 43 44 47 49 52 56 57 58 59 60 58 58 57 57 60 59 58 58 58 57 57 56 56 55 55 55 55 55 55 56 55 55 54 51 46
41 41 41 41 42 43 42 42 42 43 44 47 52 56 56 57 59 59 59 57 56 56 59 58 58 58 57 57 56 56 55 55 55 55 55 54 55 55 55 55 53 51 50
41 40 41 41 41 41 41 41 41 41 43 45 53 56 57 57 58 59 58 57 56 57 58 58 57 56 56 56 55 55 55 54 54 54 54 55 55 54 54 54 53 52 51
38 38 39 39 39 40 40 40 40 40 41 44 52 56 56 56 57 59 56 56 55 55 54 57 57 56 55 55 55 54 54 55 55 54 54 54 54 54 54 53 53 52 52
37 37 37 37 37 38 38 39 38 39 39 42 51 55 55 56 56 57 55 55 55 53 53 57 56 55 55 54 54 54 53 54 54 55 55 54 54 53 53 53 52 52 51
35 35 35 36 36 36 36 36 37 37 38 40 46 55 55 56 56 55 54 55 55 54 53 54 55 55 55 54 54 53 53 52 53 54 54 54 54 53 53 52 52 52 51
34 34 34 33 33 34 34 35 35 36 37 40 46 55 55 56 56 55 55 55 55 54 53 52 55 55 54 53 53 53 52 52 52 52 53 53 52 52 52 52 52 52 51
32 32 33 32 33 33 33 34 35 35 36 41 51 54 55 55 55 55 54 54 54 54 53 52 52 53 52 52 52 52 52 51 52 52 52 52 52 51 51 48 44 42 43
32 32 32 31 31 32 33 33 34 34 34 35 39 49 54 54 55 55 54 54 54 54 54 54 53 53 51 51 50 51 53 51 51 51 51 51 50 51 49 44 38 35 34
31 31 32 31 31 31 32 32 32 32 32 32 33 36 42 53 54 53 53 54 54 54 53 50 48 47 41 43 49 50 52 52 51 50 45 50 50 50 46 42 36 31 29
31 31 31 31 30 31 32 31 30 30 30 31 32 34 36 41 47 49 51 51 49 43 38 36 35 36 37 37 42 48 52 47 41 38 38 39 46 47 44 42 36 31 26
29 29 29 29 29 31 31 31 30 29 30 31 32 32 33 35 36 38 40 41 38 34 32 30 30 31 32 34 40 44 48 41 36 34 32 32 36 39 38 37 34 28 25
28 28 27 28 29 29 30 30 29 31 31 30 30 30 32 32 33 33 34 34 33 31 29 28 26 27 29 31 32 35 36 34 31 29 30 30 31 30 30 28 27 26 25
27 28 27 26 27 28 29 28 30 31 31 29 28 28 29 31 31 30 31 30 30 29 27 26 25 24 25 26 28 29 29 28 27 27 28 27 26 26 26 26 25 24 23
27 26 26 26 25 27 28 29 31 31 30 28 27 27 26 27 28 28 29 28 28 26 26 25 24 24 25 25 25 25 26 25 24 24 25 25 25 24 24 24 25 24 23
27 26 25 25 25 26 27 28 29 31 29 28 27 26 25 25 25 26 26 26 27 27 25 25 26 24 24 26 27 26 26 26 26 26 25 24 24 23 23 23 24 25 24
23 24 24 24 24 25 25 27 29 29 28 26 27 27 25 24 23 22 23 27 28 28 28 28 27 29 30 30 30 30 31 29 27 26 25 24 23 22 21 20 18 18 17

GFSMW_sfc_30mbdewp_117.txt.gz
Dewpoint
26 27 27 28 28 33 38 52 63 64 65 64 64 64 63 63 63 64 65 65 65 65 65 64 63 64 62 62 62 61 61 60 60 59 59 59 60 59 59 59 58 58 57
28 26 26 32 35 39 42 45 60 65 65 65 64 64 64 64 63 63 63 64 64 64 65 64 62 63 62 62 61 60 59 59 60 57 55 53 55 58 59 58 57 57 57
28 30 34 35 39 41 42 42 46 55 62 63 64 63 63 62 62 61 62 63 63 64 64 63 62 62 61 60 60 59 58 57 58 58 54 52 51 54 57 57 56 56 56
28 28 37 39 40 42 46 46 49 50 50 52 60 61 61 61 61 61 61 61 63 63 63 63 62 61 60 59 59 59 58 56 55 58 57 55 54 51 51 55 55 55 54
26 28 37 39 40 44 46 48 49 49 50 50 53 60 60 61 61 61 61 60 62 63 63 62 62 61 60 59 59 59 58 57 56 56 56 54 54 54 51 50 53 54 54
31 36 38 41 45 45 46 46 46 46 47 50 52 60 60 60 60 60 60 60 60 62 62 62 62 61 60 59 58 58 58 57 56 56 56 54 53 52 51 50 52 52 53
33 37 42 43 43 44 44 44 45 44 45 48 49 51 59 60 59 59 59 60 59 60 61 62 61 60 59 59 58 58 57 57 56 56 55 54 54 53 52 51 52 51 53
39 42 42 41 42 43 44 43 43 43 44 47 49 50 52 60 59 59 60 59 59 60 61 62 61 60 59 58 58 58 57 56 56 56 55 55 55 55 54 51 51 51 52
40 41 41 41 42 43 43 43 42 42 43 44 46 47 50 56 60 59 59 60 60 60 61 61 60 60 59 58 58 57 57 56 55 55 55 55 56 56 55 53 51 48 48
41 41 42 42 42 43 43 42 42 41 42 42 43 45 48 51 60 59 58 59 60 60 61 61 60 59 59 58 58 57 57 56 55 55 55 55 56 56 56 55 53 52 49
40 40 40 40 40 41 41 41 40 40 40 41 41 43 46 50 58 58 58 59 59 59 60 60 59 58 58 58 57 56 56 55 55 55 55 55 56 56 55 55 54 53 52
38 38 38 38 38 38 39 38 38 38 39 39 40 41 45 56 57 58 58 59 58 59 59 58 58 57 57 57 56 55 55 55 54 55 55 55 55 55 55 54 53 53 53
36 36 36 36 36 36 37 36 37 37 37 38 38 40 44 57 57 57 58 58 58 58 58 58 57 57 56 56 56 55 55 55 55 55 55 54 54 54 54 54 54 53 53
35 34 34 34 34 35 35 35 35 36 36 36 37 39 42 55 57 57 58 57 57 57 58 57 57 56 56 56 55 55 55 55 55 55 54 55 54 54 54 53 53 53 52
33 33 33 33 33 33 33 33 34 35 36 36 37 39 42 53 56 57 57 57 56 55 56 57 56 56 55 55 54 54 54 54 54 54 55 55 55 54 54 53 53 53 52
32 32 32 31 31 31 32 33 34 34 35 35 36 38 46 54 56 56 56 57 55 54 55 56 55 55 55 54 53 54 53 53 53 53 53 54 54 53 53 53 53 53 52
31 31 31 30 31 31 32 32 33 32 33 34 34 35 38 55 56 56 55 56 55 54 54 55 55 54 54 53 52 53 53 52 52 52 52 52 52 52 50 44 43 43 46
30 31 31 30 30 31 31 32 31 31 31 31 33 34 35 43 55 55 55 55 55 54 53 54 54 53 49 51 51 52 52 52 52 52 52 52 51 50 46 42 39 36 35
30 31 31 30 30 30 31 32 31 30 29 29 31 33 34 37 53 54 54 55 55 54 51 51 50 47 43 46 51 51 52 51 49 47 46 51 51 48 44 40 36 32 30
29 30 31 29 29 29 30 31 30 29 28 29 30 32 33 34 36 51 54 54 47 41 38 36 36 37 39 40 47 51 51 45 40 37 38 38 47 46 43 41 37 33 27
28 28 29 28 28 29 29 29 29 28 29 29 29 30 32 33 33 37 44 42 37 34 32 31 30 31 33 37 43 48 46 40 36 34 33 33 38 38 39 38 36 31 26
27 27 27 27 28 28 28 28 28 30 29 28 27 28 30 32 32 32 33 34 33 31 29 28 26 27 30 32 34 37 36 34 32 29 29 31 31 31 30 29 28 27 26
27 28 26 25 25 26 28 26 29 30 29 27 26 26 27 29 31 30 30 29 29 28 27 26 24 24 26 28 30 30 29 29 28 28 28 28 27 27 27 27 26 25 24
26 26 25 24 24 25 26 28 29 30 29 27 26 25 25 26 27 28 29 28 27 26 25 25 24 24 25 25 26 26 26 26 25 25 25 25 25 25 25 24 24 24 23
26 25 25 24 24 25 26 28 28 29 28 28 27 25 24 24 25 26 27 27 28 28 26 26 26 25 24 26 27 26 26 26 27 26 25 24 24 23 23 23 23 23 23
24 23 23 23 23 24 25 27 28 27 27 27 27 27 26 24 24 24 24 28 29 30 30 30 29 30 30 31 30 30 29 29 27 25 23 22 22 21 21 20 19 20 19